Regional Weather Roundup
Issued by NWS

Home | Current Version | Previous Version | Text Only | Print | Product List | Glossary On
Versions: 1 2 3 4 5 6 7 8 9 10 11 12 13 14 15 16 17 18 19 20 21 22 23 24 25 26 27 28 29 30 31 32 33 34 35 36 37 38 39 40 41 42 43 44 45 46 47 48 49 50
000
ASUS45 KREV 300510
RWRNV
NEVADA REGIONAL WEATHER ROUNDUP
NATIONAL WEATHER SERVICE RENO NV
1000 PM PDT FRI MAY 29 2015

NOTE: "FAIR" INDICATES FEW OR NO CLOUDS BELOW 12,000 FEET WITH NO
SIGNIFICANT WEATHER AND/OR OBSTRUCTIONS TO VISIBILITY.

NVZ001-003-004-300600-
WESTERN NEVADA

CITY           SKY/WX    TMP DP  RH WIND       PRES   REMARKS
RENO           MOCLDY    76  29  17 NW3       30.04R
CARSON CITY    FAIR      70  36  28 N7        30.06R
MINDEN         FAIR      63  39  42 E5        30.06
SLIDE MTN        N/A     50  30  46 W22         N/A
PYRAMID LAKE     N/A     75 N/A N/A S6          N/A
FALLON         MOCLDY    74  37  26 NW9       29.97R
LOVELOCK       MOCLDY    72  41  32 NW6       29.97R
HAWTHORNE      CLEAR     79  39  24 NW13      29.99R
$$

NVZ002-CAZ072-073-300600-
NORTHERN AND CENTRAL SIERRA

CITY           SKY/WX    TMP DP  RH WIND       PRES   REMARKS
S. LAKE TAHOE  PTCLDY    57  44  62 CALM      30.18R
TRUCKEE        MOCLDY    54  37  54 CALM      30.17R
SQUAW VLY 8000   N/A     54  32  43 SW6         N/A
BLUE CANYON    MOCLDY    62  41  46 CALM      30.14R
MAMMOTH LAKES  FAIR      59  28  31 NE5       30.23R
BRIDGEPORT     FAIR      60  30  32 CALM      30.18R
$$

NVZ030-031-036-300600-
NORTHERN NEVADA

CITY           SKY/WX    TMP DP  RH WIND       PRES   REMARKS
ELKO           PTCLDY    63  40  42 E3        30.09R
WINNEMUCCA     MOCLDY    64  47  53 E5        30.01R
WENDOVER       CLEAR     66  45  45 NE5       30.12R
$$

NVZ035-037-300600-
CENTRAL NEVADA

CITY           SKY/WX    TMP DP  RH WIND       PRES   REMARKS
ELY            MOCLDY    61  44  53 S13       30.18R
EUREKA           N/A     64  41  42 VRB3      30.12R
$$

NVZ013-014-300600-
SOUTH CENTRAL NEVADA

CITY           SKY/WX    TMP DP  RH WIND       PRES   REMARKS
TONOPAH        PTCLDY    70  26  19 S8        30.08R
$$

NVZ017-020-022-300600-
SOUTHERN NEVADA

CITY           SKY/WX    TMP DP  RH WIND       PRES   REMARKS
LAS VEGAS      PTCLDY    90  19   7 S13       29.85R
N. LAS VEGAS   PTCLDY    90  18   7 SW6       29.88R
NELLIS AFB     PTCLDY    90  21   8 S10       29.86R
HENDERSON      PTCLDY    85  24  11 SW6       29.93R
MERCURY        PTCLDY    78  24  13 NE7       29.95R
$$


USA.gov is the U.S. government's official web portal to all federal, state and local government web resources and services.